CAPE
1158 938 1076 1185 1135 1143 1226 867 1019 1018 940 870 833 806 880 793 559 398 396 482 530 480 324 337 380 389 402 440 495 543 497 458 552 541 553 514 673 750 363 832 761 763 897 860 457 452 314 194 102 110 144 139 110 0 1 2 2 0 0 0 0 0 0
1294 1201 983 867 994 1104 1297 1177 1282 994 773 825 780 724 745 701 637 582 437 543 581 526 435 470 444 400 507 511 451 414 512 640 657 762 930 859 1029 1000 461 724 772 669 519 718 696 747 425 311 146 95 78 12 2 2 2 0 0 0 0 0 0 0 0
985 916 1006 1014 974 1098 1331 1397 1379 1307 1236 1193 912 933 602 610 681 727 637 643 613 489 628 750 778 682 590 578 500 422 600 789 842 858 922 1088 1120 906 820 891 792 616 541 505 640 682 650 557 393 139 43 9 3 2 0 0 0 0 0 0 0 0 0
1040 1044 1022 943 868 1051 1120 1268 1352 1321 1267 1228 1236 1050 653 774 699 634 697 705 692 668 707 754 928 998 986 901 794 697 610 744 812 1022 927 1030 1001 908 916 789 819 463 588 571 586 680 675 487 264 93 46 5 0 2 0 0 0 0 0 0 0 0 0
904 1004 1194 1088 1001 1040 1178 1220 1243 1148 1079 876 925 995 896 857 659 584 589 630 640 714 765 781 781 1087 1180 1060 1010 881 720 473 532 439 1035 1152 920 881 986 940 968 961 411 305 529 743 731 650 414 137 37 1 0 0 0 0 0 0 0 0 0 0 0
904 1063 1238 1152 1070 1052 991 1064 1034 1119 925 812 779 770 720 710 796 856 720 746 640 700 834 811 859 949 1255 1373 1323 1234 1128 1036 1042 1001 1142 1302 1117 1017 987 947 1072 717 298 203 387 746 891 760 551 255 28 4 0 0 0 0 0 0 0 0 0 0 0
840 948 942 901 859 903 962 1140 1161 1045 906 838 779 820 568 288 395 726 968 1128 1105 1061 857 660 716 789 865 1036 1288 1281 1245 1177 1183 1249 1341 1309 1116 988 974 958 887 774 393 276 475 618 712 726 556 287 40 6 0 0 0 0 0 0 0 0 0 0 0
626 685 688 680 661 790 921 1074 1136 1069 858 804 628 641 185 231 243 443 895 1076 1008 1063 866 860 721 853 911 887 1052 1092 1014 926 823 776 971 968 846 688 798 1038 1061 729 457 320 331 460 440 606 633 348 107 10 1 0 0 0 0 0 0 0 0 0 0
616 711 633 443 545 747 734 900 858 888 940 732 552 365 199 136 314 512 672 864 752 747 736 746 844 787 922 1072 1006 800 926 399 745 665 707 641 649 787 926 1069 920 574 421 309 214 426 355 566 638 443 272 43 1 2 0 0 0 0 0 0 0 0 0
690 658 427 328 462 554 614 710 687 625 590 583 459 357 93 78 364 600 584 642 566 548 648 766 851 878 921 1025 1039 1028 814 728 754 581 776 685 742 652 945 979 1101 893 479 292 256 330 496 632 577 496 287 154 11 0 0 0 0 0 0 0 0 0 0
665 587 383 254 321 316 324 364 359 261 398 490 419 157 107 156 325 328 617 464 404 544 583 498 560 695 804 711 813 799 835 886 832 777 751 635 593 646 867 1014 1052 557 524 275 203 177 403 502 523 510 452 480 48 0 0 0 0 0 0 0 0 0 0
594 457 412 284 316 412 319 311 318 473 420 272 207 85 85 62 136 233 445 316 288 285 330 355 342 433 528 622 614 640 533 862 874 978 819 741 702 407 578 869 847 812 489 331 183 111 172 266 465 465 348 180 108 23 0 0 0 0 0 0 0 0 0
338 402 474 323 387 496 374 336 319 380 459 258 266 158 66 40 90 123 147 143 126 127 132 93 136 183 246 286 241 212 82 201 377 754 699 668 496 671 707 686 712 646 468 358 188 16 17 94 229 178 92 41 20 36 8 0 0 0 0 0 0 0 0
251 428 447 394 524 564 430 317 316 395 179 214 89 53 21 22 21 34 40 35 45 57 41 12 9 21 3 4 1 0 0 0 0 11 160 395 430 630 562 570 687 619 513 406 208 3 1 17 36 36 10 3 0 8 1 0 0 0 0 0 0 0 0
188 226 356 294 404 312 292 257 257 122 271 23 35 5 0 1 2 4 0 0 0 0 0 0 0 0 0 21 17 0 0 0 0 1 14 48 223 378 614 531 523 471 529 466 254 40 3 0 10 16 2 1 0 0 2 0 0 0 0 0 0 0 0
222 404 397 318 338 245 266 239 118 226 108 1 0 3 0 0 0 0 0 0 0 0 0 0 0 0 0 0 1 0 0 0 0 4 3 6 5 112 366 542 545 490 512 469 127 58 14 2 15 15 6 2 1 0 0 0 0 0 0 0 0 0 0
297 523 348 317 325 190 143 127 78 115 12 0 0 0 0 0 0 0 0 0 0 0 0 0 0 0 0 0 0 0 0 0 0 0 0 0 0 0 100 441 467 520 532 276 100 140 30 26 21 15 9 4 6 0 0 0 0 0 0 0 0 0 0
390 502 234 94 52 21 22 5 0 0 0 0 0 0 0 0 0 0 0 0 0 0 0 0 0 0 0 0 0 0 0 0 0 0 0 0 0 0 0 142 262 413 635 602 294 161 113 189 21 30 29 4 0 1 0 0 0 0 0 0 0 0 0
295 188 203 8 3 0 0 0 0 0 0 0 0 0 0 0 0 0 0 0 0 0 0 0 0 0 0 0 0 0 0 0 0 0 0 0 0 0 0 0 74 273 636 858 489 372 315 473 356 272 91 35 2 2 0 0 0 0 0 0 0 0 0
77 195 248 9 19 0 0 0 0 0 0 0 0 0 0 0 0 0 0 0 0 0 0 0 0 0 0 0 0 0 0 0 0 11 1 0 0 0 0 0 2 66 492 925 865 559 368 447 559 641 443 347 6 0 0 0 0 0 0 0 0 0 0
0 0 0 0 42 66 7 0 0 0 0 0 0 0 0 0 0 0 0 0 0 0 0 0 0 0 0 0 0 0 0 0 0 0 64 11 0 0 0 0 0 0 30 148 483 436 348 378 251 467 356 327 108 6 4 0 0 0 0 38 21 0 0
0 0 0 2 16 22 22 82 56 10 0 0 0 0 0 0 0 0 0 0 0 0 0 0 0 0 0 0 0 0 0 0 0 0 0 19 5 0 0 0 0 0 0 4 0 2 12 27 38 73 104 44 96 84 75 16 1 0 0 0 0 0 0
0 1 3 9 6 10 0 0 0 0 0 0 0 0 0 0 0 0 0 0 0 0 0 0 0 0 0 0 0 0 0 0 0 4 1 12 38 10 4 0 0 0 0 0 0 0 0 0 0 17 82 1 1 4 19 11 2 2 0 0 0 0 0
0 0 0 1 3 0 0 0 0 0 0 0 0 0 0 14 3 0 0 0 0 0 1 0 0 0 0 0 0 0 0 5 0 1 16 30 41 48 43 3 65 35 0 0 0 0 0 0 0 0 0 0 0 28 49 23 11 1 0 0 0 0 0
64 30 31 11 1 1 0 0 0 0 0 0 0 0 0 0 0 3 1 0 0 1 2 0 0 0 0 0 0 0 0 0 0 5 6 12 18 31 83 118 153 145 202 306 289 48 0 0 0 0 0 0 0 0 0 86 57 30 3 0 0 0 0
3 0 0 0 0 0 0 0 0 0 0 0 0 0 0 0 0 0 0 0 0 0 0 0 0 0 0 0 0 0 0 0 0 0 0 2 19 69 121 85 133 170 70 6 0 116 259 28 0 0 0 0 0 0 0 0 0 8 63 2 0 4 1
7 4 0 0 0 4 3 2 0 0 0 0 0 0 0 0 0 0 0 0 0 0 0 0 0 0 0 0 0 0 0 0 0 0 0 0 0 2 14 22 42 115 206 123 158 296 156 252 172 11 0 0 3 0 0 0 0 0 0 0 13 13 111
0 1 0 4 9 2 0 0 0 0 0 3 0 0 0 0 0 0 0 0 0 0 0 0 0 0 0 0 0 0 0 4 118 159 63 14 4 4 5 8 10 12 36 72 99 177 152 119 90 102 103 186 195 260 37 4 0 0 0 0 2 42 91
0 0 0 2 3 5 8 0 0 0 0 0 0 0 0 0 0 0 0 0 0 0 0 0 0 0 0 0 0 0 0 0 21 119 243 156 86 93 47 56 125 158 179 160 47 0 0 15 18 11 24 60 115 127 56 69 0 0 2 14 18 65 91
9 6 6 4 16 21 22 16 9 7 6 0 0 0 0 0 0 0 0 0 0 0 0 0 0 0 0 0 0 0 0 0 0 0 0 0 0 8 58 57 198 264 353 453 72 0 0 0 0 7 37 118 173 86 7 10 0 0 0 0 0 0 0
9 9 9 10 4 2 2 2 2 1 0 0 1 0 0 0 0 0 0 0 0 0 0 0 0 0 0 0 0 0 0 0 0 0 0 0 0 1 1 0 0 63 271 460 307 0 0 0 2 132 224 235 266 181 102 57 0 0 0 0 0 0 0
0 0 0 3 0 2 2 1 1 2 1 1 1 0 0 0 0 0 0 0 0 0 0 0 0 0 0 0 0 0 0 0 0 0 0 0 0 0 0 0 0 0 107 186 192 178 0 0 6 216 279 312 314 324 308 339 1 0 0 0 0 0 0
0 0 0 0 0 0 0 0 1 1 1 0 0 0 0 0 0 0 0 0 0 0 0 0 0 0 0 0 0 0 0 0 0 0 0 0 0 0 0 0 2 0 0 0 0 0 0 0 193 236 283 372 371 315 385 242 0 0 0 0 0 0 0
8 3 0 0 0 0 0 1 1 5 7 3 0 0 0 0 0 0 0 0 0 0 0 0 0 0 0 0 0 0 0 0 0 0 0 0 0 0 0 0 0 0 0 0 0 0 0 0 0 96 284 297 360 337 241 226 235 212 197 221 203 172 143
3 6 9 7 5 0 0 4 9 11 8 5 4 2 0 0 0 0 0 0 0 0 0 0 0 0 0 0 0 0 0 0 0 0 0 0 0 0 0 0 0 0 0 0 0 0 0 0 0 0 247 323 314 278 273 220 176 185 158 128 102 0 0
0 0 0 2 2 4 6 8 8 8 8 6 5 3 1 0 0 0 0 0 0 0 0 0 0 0 0 0 0 0 0 0 0 0 0 0 0 0 0 0 0 0 0 0 0 0 0 0 0 0 58 250 296 269 197 130 109 33 19 0 0 0 0
0 0 0 0 0 0 0 0 0 0 0 0 0 0 0 0 0 0 0 0 0 0 0 0 0 0 0 0 0 0 0 0 0 0 0 0 0 0 0 0 0 0 0 0 0 0 0 0 0 0 0 70 267 308 218 154 110 31 28 40 0 0 0
Wind_Speed
22 23 24 25 27 27 27 26 25 24 23 22 21 20 20 20 19 18 15 13 12 12 12 11 10 10 10 10 9 8 9 8 7 6 8 8 7 8 7 7 8 9 11 6 13 12 15 16 14 16 16 18 18 nan nan nan nan nan nan nan nan nan nan
27 29 29 29 29 29 30 27 26 25 24 23 22 22 21 21 20 18 16 14 12 12 11 10 9 9 9 10 10 9 9 10 9 9 10 9 8 10 10 10 10 10 9 9 11 11 15 17 16 nan nan nan nan nan nan nan nan nan nan nan nan nan nan
29 30 30 32 32 30 29 26 25 24 24 24 23 22 22 22 21 18 16 14 12 12 10 10 10 10 10 11 11 10 10 9 10 10 10 11 10 13 11 13 13 13 12 12 12 13 14 14 17 18 nan nan nan nan nan nan nan nan nan nan nan nan nan
29 30 32 32 32 29 27 25 24 24 24 24 22 21 20 21 21 19 16 15 13 12 11 10 10 11 12 12 13 12 11 10 10 11 11 12 12 13 12 12 12 13 14 12 14 15 15 15 19 nan nan nan nan nan nan nan nan nan nan nan nan nan nan
29 30 30 30 29 28 26 25 24 24 24 24 22 21 21 21 20 19 17 15 14 13 12 12 12 12 13 13 14 14 14 12 12 12 12 13 13 12 11 11 11 13 18 10 11 13 15 17 19 21 nan nan nan nan nan nan nan nan nan nan nan nan nan
28 29 29 28 26 27 26 26 24 23 23 22 21 21 22 21 21 20 18 16 15 14 14 14 13 11 11 12 13 14 15 14 14 13 13 12 12 12 12 12 12 14 16 12 9 14 16 17 19 20 nan nan nan nan nan nan nan nan nan nan nan nan nan
28 28 27 26 25 27 27 25 23 22 21 20 21 21 21 21 22 22 19 18 18 17 16 15 13 10 9 9 11 11 13 13 12 11 10 11 11 10 11 12 11 12 13 13 13 15 17 17 17 19 nan nan nan nan nan nan nan nan nan nan nan nan nan
27 26 25 25 25 27 27 25 22 21 20 20 21 23 21 22 23 22 20 20 20 19 18 16 14 11 10 9 10 11 11 11 10 10 9 10 10 9 9 9 11 12 13 12 14 14 15 14 16 18 20 nan nan nan nan nan nan nan nan nan nan nan nan
27 26 24 24 26 26 26 23 21 20 20 21 22 23 22 22 22 22 21 21 20 20 18 16 14 12 11 10 11 12 11 11 11 10 10 9 9 9 9 10 10 12 11 12 13 14 13 13 14 15 16 nan nan nan nan nan nan nan nan nan nan nan nan
27 24 23 23 25 25 23 20 19 19 20 21 22 22 nan nan 22 22 21 21 21 20 18 17 16 13 12 12 12 11 11 13 13 13 12 11 11 11 10 11 10 12 13 13 13 14 13 13 13 14 15 15 nan nan nan nan nan nan nan nan nan nan nan
24 23 23 23 23 22 20 17 17 18 18 19 20 22 23 24 23 21 22 22 22 20 19 18 16 14 12 13 12 11 11 12 13 13 12 12 12 11 11 12 12 15 15 15 14 14 14 14 13 14 13 13 nan nan nan nan nan nan nan nan nan nan nan
22 21 21 21 20 18 15 14 14 15 17 17 18 nan nan nan 22 21 21 22 22 21 20 19 17 15 13 14 13 12 11 10 11 12 12 11 11 11 12 13 14 15 16 16 16 16 15 15 14 14 14 14 14 nan nan nan nan nan nan nan nan nan nan
20 20 19 18 17 15 13 13 14 15 16 16 18 20 nan nan nan 22 21 21 22 22 21 nan 18 17 14 15 15 13 nan 10 11 11 12 11 12 12 14 14 15 16 17 17 17 nan nan nan 15 16 nan nan nan nan nan nan nan nan nan nan nan nan nan
20 19 18 17 17 15 15 15 15 17 19 19 nan nan nan nan nan nan nan nan nan nan nan nan nan nan nan nan nan nan nan nan nan nan 13 13 13 13 14 14 17 18 18 18 18 nan nan nan nan nan nan nan nan nan nan nan nan nan nan nan nan nan nan
19 18 18 18 17 16 15 15 17 18 19 nan nan nan nan nan nan nan nan nan nan nan nan nan nan nan nan nan nan nan nan nan nan nan nan nan 15 15 15 16 18 19 18 18 19 nan nan nan nan nan nan nan nan nan nan nan nan nan nan nan nan nan nan
19 19 19 17 16 16 15 16 16 17 18 nan nan nan nan nan nan nan nan nan nan nan nan nan nan nan nan nan nan nan nan nan nan nan nan nan nan 18 17 17 19 20 19 19 18 nan nan nan nan nan nan nan nan nan nan nan nan nan nan nan nan nan nan
21 20 19 18 18 17 17 18 nan 19 nan nan nan nan nan nan nan nan nan nan nan nan nan nan nan nan nan nan nan nan nan nan nan nan nan nan nan nan 19 19 21 22 21 20 19 19 nan nan nan nan nan nan nan nan nan nan nan nan nan nan nan nan nan
22 23 23 nan nan nan nan nan nan nan nan nan nan nan nan nan nan nan nan nan nan nan nan nan nan nan nan nan nan nan nan nan nan nan nan nan nan nan nan 19 22 22 21 21 20 19 19 19 nan nan nan nan nan nan nan nan nan nan nan nan nan nan nan
27 24 22 nan nan nan nan nan nan nan nan nan nan nan nan nan nan nan nan nan nan nan nan nan nan nan nan nan nan nan nan nan nan nan nan nan nan nan nan nan nan 21 21 21 21 20 19 19 19 19 nan nan nan nan nan nan nan nan nan nan nan nan nan
nan 22 21 nan nan nan nan nan nan nan nan nan nan nan nan nan nan nan nan nan nan nan nan nan nan nan nan nan nan nan nan nan nan nan nan nan nan nan nan nan nan nan 20 20 21 21 20 20 20 19 19 20 nan nan nan nan nan nan nan nan nan nan nan
nan nan nan nan nan nan nan nan nan nan nan nan nan nan nan nan nan nan nan nan nan nan nan nan nan nan nan nan nan nan nan nan nan nan nan nan nan nan nan nan nan nan nan 22 22 22 22 21 21 20 20 20 20 nan nan nan nan nan nan nan nan nan nan
nan nan nan nan nan nan nan nan nan nan nan nan nan nan nan nan nan nan nan nan nan nan nan nan nan nan nan nan nan nan nan nan nan nan nan nan nan nan nan nan nan nan nan nan nan nan nan nan nan nan 22 nan nan nan nan nan nan nan nan nan nan nan nan
nan nan nan nan nan nan nan nan nan nan nan nan nan nan nan nan nan nan nan nan nan nan nan nan nan nan nan nan nan nan nan nan nan nan nan nan nan nan nan nan nan nan nan nan nan nan nan nan nan nan nan nan nan nan nan nan nan nan nan nan nan nan nan
nan nan nan nan nan nan nan nan nan nan nan nan nan nan nan nan nan nan nan nan nan nan nan nan nan nan nan nan nan nan nan nan nan nan nan nan nan nan nan nan nan nan nan nan nan nan nan nan nan nan nan nan nan nan nan nan nan nan nan nan nan nan nan
nan nan nan nan nan nan nan nan nan nan nan nan nan nan nan nan nan nan nan nan nan nan nan nan nan nan nan nan nan nan nan nan nan nan nan nan nan nan nan 23 24 25 26 26 28 nan nan nan nan nan nan nan nan nan nan nan nan nan nan nan nan nan nan
nan nan nan nan nan nan nan nan nan nan nan nan nan nan nan nan nan nan nan nan nan nan nan nan nan nan nan nan nan nan nan nan nan nan nan nan nan nan 25 nan 26 28 nan nan nan 29 31 nan nan nan nan nan nan nan nan nan nan nan nan nan nan nan nan
nan nan nan nan nan nan nan nan nan nan nan nan nan nan nan nan nan nan nan nan nan nan nan nan nan nan nan nan nan nan nan nan nan nan nan nan nan nan nan nan nan 30 32 32 31 31 32 32 34 nan nan nan nan nan nan nan nan nan nan nan nan nan 27
nan nan nan nan nan nan nan nan nan nan nan nan nan nan nan nan nan nan nan nan nan nan nan nan nan nan nan nan nan nan nan nan 32 33 nan nan nan nan nan nan nan nan nan nan nan 34 33 34 nan 34 33 32 32 33 nan nan nan nan nan nan nan nan nan
nan nan nan nan nan nan nan nan nan nan nan nan nan nan nan nan nan nan nan nan nan nan nan nan nan nan nan nan nan nan nan nan nan 34 35 35 nan nan nan nan 33 33 34 34 nan nan nan nan nan nan nan nan 35 38 nan nan nan nan nan nan nan nan nan
nan nan nan nan nan nan nan nan nan nan nan nan nan nan nan nan nan nan nan nan nan nan nan nan nan nan nan nan nan nan nan nan nan nan nan nan nan nan nan nan 36 36 36 35 nan nan nan nan nan nan nan 37 39 nan nan nan nan nan nan nan nan nan nan
nan nan nan nan nan nan nan nan nan nan nan nan nan nan nan nan nan nan nan nan nan nan nan nan nan nan nan nan nan nan nan nan nan nan nan nan nan nan nan nan nan nan 38 40 49 nan nan nan nan 40 40 40 41 41 42 nan nan nan nan nan nan nan nan
nan nan nan nan nan nan nan nan nan nan nan nan nan nan nan nan nan nan nan nan nan nan nan nan nan nan nan nan nan nan nan nan nan nan nan nan nan nan nan nan nan nan 43 44 47 49 nan nan nan 45 45 45 44 43 44 49 nan nan nan nan nan nan nan
nan nan nan nan nan nan nan nan nan nan nan nan nan nan nan nan nan nan nan nan nan nan nan nan nan nan nan nan nan nan nan nan nan nan nan nan nan nan nan nan nan nan nan nan nan nan nan nan 48 48 48 48 49 48 51 54 nan nan nan nan nan nan nan
nan nan nan nan nan nan nan nan nan nan nan nan nan nan nan nan nan nan nan nan nan nan nan nan nan nan nan nan nan nan nan nan nan nan nan nan nan nan nan nan nan nan nan nan nan nan nan nan nan nan 51 51 51 56 60 56 62 61 58 59 59 59 60
nan nan nan nan nan nan nan nan nan nan nan nan nan nan nan nan nan nan nan nan nan nan nan nan nan nan nan nan nan nan nan nan nan nan nan nan nan nan nan nan nan nan nan nan nan nan nan nan nan nan 53 51 53 61 59 58 62 64 61 62 62 nan nan
nan nan nan nan nan nan nan nan nan nan nan nan nan nan nan nan nan nan nan nan nan nan nan nan nan nan nan nan nan nan nan nan nan nan nan nan nan nan nan nan nan nan nan nan nan nan nan nan nan nan nan 53 54 59 62 61 63 nan nan nan nan nan nan
nan nan nan nan nan nan nan nan nan nan nan nan nan nan nan nan nan nan nan nan nan nan nan nan nan nan nan nan nan nan nan nan nan nan nan nan nan nan nan nan nan nan nan nan nan nan nan nan nan nan nan nan 57 61 62 60 64 nan nan nan nan nan nan
Wind_Direction
256 257 254 248 243 243 247 251 251 251 254 255 255 256 257 256 253 252 253 256 258 255 254 256 258 259 261 267 272 274 271 273 286 283 298 301 310 290 281 276 270 288 304 282 306 306 299 294 281 274 265 265 263 nan nan nan nan nan nan nan nan nan nan
249 248 246 247 247 246 248 248 250 255 258 258 257 258 257 255 251 248 248 248 250 253 252 250 252 258 264 267 274 276 277 274 265 262 271 283 285 282 289 283 281 292 294 288 304 295 297 294 289 nan nan nan nan nan nan nan nan nan nan nan nan nan nan
245 245 245 246 248 250 252 252 252 254 256 258 258 253 255 255 252 248 244 244 245 248 247 248 252 257 264 268 274 277 276 273 268 267 268 266 270 271 276 277 283 288 292 292 302 300 296 299 299 296 nan nan nan nan nan nan nan nan nan nan nan nan nan
249 246 246 246 247 251 254 253 255 254 253 255 252 251 254 255 253 246 239 239 241 245 248 253 255 257 264 269 271 275 274 272 266 269 267 261 264 271 276 278 282 291 289 296 301 303 298 293 293 nan nan nan nan nan nan nan nan nan nan nan nan nan nan
248 246 250 252 253 256 255 256 254 253 254 251 246 247 252 256 256 248 240 239 241 246 251 253 257 264 268 272 274 273 270 269 267 265 265 269 272 270 277 273 271 273 270 258 287 295 295 290 294 298 nan nan nan nan nan nan nan nan nan nan nan nan nan
248 250 253 253 253 255 255 257 259 260 257 255 252 253 252 256 253 248 244 242 243 247 251 254 259 265 269 274 275 275 272 272 270 273 270 273 276 271 270 269 260 266 280 283 280 285 277 281 289 292 nan nan nan nan nan nan nan nan nan nan nan nan nan
245 248 249 252 251 251 253 258 262 263 262 262 260 258 251 249 246 242 239 241 243 251 254 255 257 262 274 280 280 275 269 264 263 269 266 268 268 266 262 267 270 263 268 271 277 279 280 284 285 289 nan nan nan nan nan nan nan nan nan nan nan nan nan
242 246 249 249 249 251 252 256 257 258 262 261 262 257 252 246 243 241 239 241 245 251 255 257 260 268 280 283 277 270 263 260 265 264 263 267 265 268 268 265 268 263 262 267 276 280 285 287 288 291 294 nan nan nan nan nan nan nan nan nan nan nan nan
241 247 248 246 248 251 254 257 259 258 258 260 257 258 254 251 248 245 242 244 248 254 259 261 264 269 281 285 277 272 271 267 271 275 269 271 271 274 277 275 276 274 273 275 281 284 291 292 290 291 292 nan nan nan nan nan nan nan nan nan nan nan nan
247 254 253 253 255 255 259 257 258 258 258 260 261 257 nan nan 249 245 244 246 250 257 262 262 263 270 284 287 282 279 276 277 275 275 272 272 275 282 286 293 285 283 285 282 285 290 294 294 295 295 298 294 nan nan nan nan nan nan nan nan nan nan nan
252 255 256 257 257 261 260 257 254 261 265 260 258 257 258 258 252 247 245 245 250 256 260 261 264 270 281 282 280 277 273 277 276 273 271 274 278 284 289 290 284 282 281 287 292 297 296 298 298 299 295 283 nan nan nan nan nan nan nan nan nan nan nan
250 253 252 254 258 264 266 260 261 261 259 257 257 nan nan nan 254 249 246 247 252 258 261 263 265 266 273 277 277 274 273 274 275 276 277 281 284 293 298 296 289 282 282 287 290 293 290 296 300 301 293 285 282 nan nan nan nan nan nan nan nan nan nan
246 248 253 256 259 264 258 252 252 256 256 252 252 255 nan nan nan 257 251 250 254 259 262 nan 264 265 268 269 271 269 nan 275 278 281 283 286 286 294 300 301 295 289 287 288 290 nan nan nan 295 298 nan nan nan nan nan nan nan nan nan nan nan nan nan
242 247 255 254 253 248 242 245 250 252 250 249 nan nan nan nan nan nan nan nan nan nan nan nan nan nan nan nan nan nan nan nan nan nan 274 278 278 285 290 292 293 291 291 291 288 nan nan nan nan nan nan nan nan nan nan nan nan nan nan nan nan nan nan
243 248 252 249 245 242 242 248 253 254 253 nan nan nan nan nan nan nan nan nan nan nan nan nan nan nan nan nan nan nan nan nan nan nan nan nan 275 274 279 284 287 288 290 291 289 nan nan nan nan nan nan nan nan nan nan nan nan nan nan nan nan nan nan
245 250 250 247 245 242 244 249 254 261 259 nan nan nan nan nan nan nan nan nan nan nan nan nan nan nan nan nan nan nan nan nan nan nan nan nan nan 275 280 282 284 285 280 284 286 nan nan nan nan nan nan nan nan nan nan nan nan nan nan nan nan nan nan
249 247 246 240 243 240 242 246 nan 257 nan nan nan nan nan nan nan nan nan nan nan nan nan nan nan nan nan nan nan nan nan nan nan nan nan nan nan nan 277 280 281 285 285 285 285 281 nan nan nan nan nan nan nan nan nan nan nan nan nan nan nan nan nan
242 242 240 nan nan nan nan nan nan nan nan nan nan nan nan nan nan nan nan nan nan nan nan nan nan nan nan nan nan nan nan nan nan nan nan nan nan nan nan 276 281 285 286 283 280 282 283 286 nan nan nan nan nan nan nan nan nan nan nan nan nan nan nan
229 238 246 nan nan nan nan nan nan nan nan nan nan nan nan nan nan nan nan nan nan nan nan nan nan nan nan nan nan nan nan nan nan nan nan nan nan nan nan nan nan 280 283 280 280 279 280 285 281 283 nan nan nan nan nan nan nan nan nan nan nan nan nan
nan 247 242 nan nan nan nan nan nan nan nan nan nan nan nan nan nan nan nan nan nan nan nan nan nan nan nan nan nan nan nan nan nan nan nan nan nan nan nan nan nan nan 276 277 277 278 278 279 277 280 278 278 nan nan nan nan nan nan nan nan nan nan nan
nan nan nan nan nan nan nan nan nan nan nan nan nan nan nan nan nan nan nan nan nan nan nan nan nan nan nan nan nan nan nan nan nan nan nan nan nan nan nan nan nan nan nan 272 272 272 273 275 272 274 275 277 279 nan nan nan nan nan nan nan nan nan nan
nan nan nan nan nan nan nan nan nan nan nan nan nan nan nan nan nan nan nan nan nan nan nan nan nan nan nan nan nan nan nan nan nan nan nan nan nan nan nan nan nan nan nan nan nan nan nan nan nan nan 275 nan nan nan nan nan nan nan nan nan nan nan nan
nan nan nan nan nan nan nan nan nan nan nan nan nan nan nan nan nan nan nan nan nan nan nan nan nan nan nan nan nan nan nan nan nan nan nan nan nan nan nan nan nan nan nan nan nan nan nan nan nan nan nan nan nan nan nan nan nan nan nan nan nan nan nan
nan nan nan nan nan nan nan nan nan nan nan nan nan nan nan nan nan nan nan nan nan nan nan nan nan nan nan nan nan nan nan nan nan nan nan nan nan nan nan nan nan nan nan nan nan nan nan nan nan nan nan nan nan nan nan nan nan nan nan nan nan nan nan
nan nan nan nan nan nan nan nan nan nan nan nan nan nan nan nan nan nan nan nan nan nan nan nan nan nan nan nan nan nan nan nan nan nan nan nan nan nan nan 262 262 260 259 259 261 nan nan nan nan nan nan nan nan nan nan nan nan nan nan nan nan nan nan
nan nan nan nan nan nan nan nan nan nan nan nan nan nan nan nan nan nan nan nan nan nan nan nan nan nan nan nan nan nan nan nan nan nan nan nan nan nan 246 nan 254 255 nan nan nan 260 265 nan nan nan nan nan nan nan nan nan nan nan nan nan nan nan nan
nan nan nan nan nan nan nan nan nan nan nan nan nan nan nan nan nan nan nan nan nan nan nan nan nan nan nan nan nan nan nan nan nan nan nan nan nan nan nan nan nan 246 250 254 256 258 261 264 269 nan nan nan nan nan nan nan nan nan nan nan nan nan 280
nan nan nan nan nan nan nan nan nan nan nan nan nan nan nan nan nan nan nan nan nan nan nan nan nan nan nan nan nan nan nan nan 258 255 nan nan nan nan nan nan nan nan nan nan nan 255 258 262 nan 265 266 268 270 271 nan nan nan nan nan nan nan nan nan
nan nan nan nan nan nan nan nan nan nan nan nan nan nan nan nan nan nan nan nan nan nan nan nan nan nan nan nan nan nan nan nan nan 256 256 255 nan nan nan nan 253 253 254 256 nan nan nan nan nan nan nan nan 269 270 nan nan nan nan nan nan nan nan nan
nan nan nan nan nan nan nan nan nan nan nan nan nan nan nan nan nan nan nan nan nan nan nan nan nan nan nan nan nan nan nan nan nan nan nan nan nan nan nan nan 256 255 256 258 nan nan nan nan nan nan nan 271 272 nan nan nan nan nan nan nan nan nan nan
nan nan nan nan nan nan nan nan nan nan nan nan nan nan nan nan nan nan nan nan nan nan nan nan nan nan nan nan nan nan nan nan nan nan nan nan nan nan nan nan nan nan 261 262 263 nan nan nan nan 270 271 271 273 275 275 nan nan nan nan nan nan nan nan
nan nan nan nan nan nan nan nan nan nan nan nan nan nan nan nan nan nan nan nan nan nan nan nan nan nan nan nan nan nan nan nan nan nan nan nan nan nan nan nan nan nan 264 262 261 267 nan nan nan 271 272 271 273 274 274 275 nan nan nan nan nan nan nan
nan nan nan nan nan nan nan nan nan nan nan nan nan nan nan nan nan nan nan nan nan nan nan nan nan nan nan nan nan nan nan nan nan nan nan nan nan nan nan nan nan nan nan nan nan nan nan nan 273 272 273 274 276 277 276 277 nan nan nan nan nan nan nan
nan nan nan nan nan nan nan nan nan nan nan nan nan nan nan nan nan nan nan nan nan nan nan nan nan nan nan nan nan nan nan nan nan nan nan nan nan nan nan nan nan nan nan nan nan nan nan nan nan nan 274 275 275 270 270 273 276 278 276 277 278 278 278
nan nan nan nan nan nan nan nan nan nan nan nan nan nan nan nan nan nan nan nan nan nan nan nan nan nan nan nan nan nan nan nan nan nan nan nan nan nan nan nan nan nan nan nan nan nan nan nan nan nan 274 274 271 272 273 272 273 276 276 277 277 nan nan
nan nan nan nan nan nan nan nan nan nan nan nan nan nan nan nan nan nan nan nan nan nan nan nan nan nan nan nan nan nan nan nan nan nan nan nan nan nan nan nan nan nan nan nan nan nan nan nan nan nan nan 271 270 272 272 273 274 nan nan nan nan nan nan
nan nan nan nan nan nan nan nan nan nan nan nan nan nan nan nan nan nan nan nan nan nan nan nan nan nan nan nan nan nan nan nan nan nan nan nan nan nan nan nan nan nan nan nan nan nan nan nan nan nan nan nan 271 270 270 273 274 nan nan nan nan nan nan